Home   Weather   Provo   Past weeks
Flag for USA

Past Weather in Provo, Utah, USA — Yesterday and Last 2 Weeks

Now
46 °F

Passing clouds.


Feels Like: 41 °F
Forecast: 59 / 37 °F
Wind: 10 mph from Southeast

Location: Salt Lake City International Airport

Current Time: Oct 18, 2019 at 11:03:38 pm

Latest Report: Oct 18, 2019 at 9:54 pm


Visibility: 10 mi

Pressure: 29.95 "Hg (25.30 "Hg at 1386m altitude)

Humidity: 50%

Dew Point: 28 °F

Location of ProvoLocation

Past Weather in Provo — Graph

°F

Provo Temperature Yesterday

Maximum temperature yesterday: 73 °F (at 12:54 pm)
Minimum temperature yesterday: 44 °F (at 10:54 pm)
Average temperature yesterday: 62 °F

High & Low Weather Summary for the Past Weeks

 TemperatureHumidityPressure
High77 °F (Oct 16, 2:54 pm)93% (Oct 18, 6:54 am)30.49 "Hg (Oct 18, 6:54 am)
Low29 °F (Oct 11, 3:54 am)9% (Oct 16, 2:54 pm)29.45 "Hg (Oct 17, 4:54 pm)
Average50 °F42%30.05 "Hg
* Reported Oct 3 9:54 pm — Oct 18 9:54 pm, Provo. Weather by CustomWeather, © 2019

Note: Actual official high and low records may vary slightly from our data, if they occured in-between our weather recording intervals... More about our weather records

Advertising

Provo Weather History for the Previous 24 Hours

Scroll right to see more
 ConditionsComfort  
Time TempWeatherWind HumidityBarometerVisibility
9:54 pm
Fri, Oct 18
46 °FPassing clouds.10 mph50%29.95 "Hg10 mi
8:54 pm47 °FPassing clouds.7 mph56%29.96 "Hg10 mi
7:54 pm51 °FPassing clouds.5 mph46%29.96 "Hg10 mi
6:54 pm53 °FPassing clouds.No wind37%29.94 "Hg10 mi
5:54 pm55 °FScattered clouds.6 mph34%29.94 "Hg10 mi
4:54 pm56 °FScattered clouds.9 mph33%29.94 "Hg10 mi
3:54 pm56 °FScattered clouds.13 mph34%29.94 "Hg10 mi
2:54 pm55 °FScattered clouds.7 mph34%29.94 "Hg10 mi
1:54 pm54 °FScattered clouds.10 mph34%29.96 "Hg10 mi
12:54 pm52 °FScattered clouds.3 mph41%29.98 "Hg10 mi
11:54 am52 °FScattered clouds.8 mph45%29.98 "Hg10 mi
10:54 am50 °FPassing clouds.7 mph50%29.99 "Hg10 mi
9:54 am48 °FScattered clouds.No wind61%29.97 "Hg10 mi
8:54 am43 °FScattered clouds.7 mph86%29.94 "Hg10 mi
7:54 am41 °FScattered clouds.6 mph89%29.92 "Hg10 mi
6:54 am41 °FPassing clouds.No wind93%29.90 "Hg10 mi
5:54 am43 °FPassing clouds.No wind89%29.86 "Hg10 mi
4:54 am44 °FPassing clouds.No wind85%29.84 "Hg10 mi
3:54 am45 °FPassing clouds.No wind82%29.83 "Hg10 mi
2:54 am45 °FClear.No wind80%29.82 "Hg10 mi
1:54 am44 °FPassing clouds.3 mph85%29.80 "Hg10 mi
12:54 am45 °FPassing clouds.8 mph82%29.79 "Hg10 mi
11:54 pm
Thu, Oct 17
45 °FLight rain. Mostly cloudy.8 mph76%29.80 "Hg10 mi
Weather by CustomWeather, © 2019

See weather overview